Location: Spruce Knob
(38.6995°N, 79.5330°W)
Time: 12:57:43
(UTC-04:00)

MOZHAYETS 4 - Pass Details

Date: 28 May 2024
Orbit: 652 x 670 km, 98.3° (Epoch: 14 June)

Event Time Altitude Azimuth Distance (km) Brightness Sun altitude
Rises 03:52:31 0° 138° (SE) 2,986 11.0 -19.4°
Reaches altitude 10° 03:54:59 10° 126° (SE) 2,074 10.3 -19.1°
Maximum altitude 03:58:47 27° 69° (ENE) 1,255 9.8 -18.6°
Drops below altitude 10° 04:02:36 10° 11° (NNE) 2,076 11.2 -18.2°
Sets 04:05:04 0° 360° (N) 2,989 11.8 -17.8°
